Retour au catalogue

SL-12 DEB

ActifHEO
NORAD 41692·DEBRIS·🇷🇺 Russia

Lancé Oct 26, 2007 depuis Baikonur Cosmodrome

Loading…

Prochains Passages (prochaines 24 heures)

TLE

FraisSource: Space-Track

Époque: Sep 13, 2026, 00:10 UTC

1 41692U 07052Z   26256.00717477  .00000265  00000-0  42598-3 0  9994
2 41692  65.3645 187.9718 5628226 232.3276  62.1839  4.42177253 91688

Suivez SL-12 DEB en temps réel avec AllMySat

Download on the App Store